[[{"header":{"parameterUnit":"m.s-1","parameterCategory":2,"la1":30.2991,"la2":30.254,"lo1":-89.0895,"lo2":-89.0444,"dy":0.0017,"dx":0.0017,"nx":28,"ny":28,"refTime":"2025-09-12T21:00:00:Z","depth":"0","parameterNumber":2,"parameterNumberName":"U-component_of_CURRENTS"},"data":[0,0,0,0,0,0,0,0,0,0,0,0,0,0,0,0,0,0,0,0,0,0,0,0,0,0,0,0,0,0,0,0,0,0,0,0,0,0,0,0,0,0,0,0,0,0,0,0,0,0,0,0,0,0,0,0,0,0,-0.3083,-0.3084,0,-0.3151,-0.3151,-0.3151,-0.3147,-0.3147,-0.3147,-0.3146,-0.3009,-0.3006,-0.3003,0,0,0,0,0,0,0,0,0,0,0,0,0,-0.2982,-0.2983,-0.3083,-0.3084,-0.3085,-0.315,-0.3151,-0.3151,-0.3147,-0.3147,-0.3146,-0.3146,-0.301,-0.3007,-0.3003,0,0,0,0,0,0,0,0,0,0,0,0,0,-0.3029,-0.2983,-0.3082,-0.3096,-0.3098,-0.315,-0.3151,-0.3151,-0.3148,-0.3147,-0.3146,-0.3146,-0.3012,-0.3007,-0.3002,-0.2984,0,0,-0.2987,-0.2985,0,0,0,0,0,0,0,0,-0.3026,-0.3032,-0.3093,-0.3095,-0.3098,-0.3145,-0.3066,-0.3087,-0.3148,-0.3122,-0.3146,-0.3145,-0.304,-0.3033,-0.3041,-0.2978,-0.2972,-0.2987,-0.2984,-0.2982,-0.298,0,0,0,0,0,0,0,-0.3023,-0.3029,-0.3103,-0.3094,-0.3098,-0.311,-0.3115,-0.307,-0.3075,-0.3124,-0.3126,-0.3144,-0.3039,-0.3046,-0.3037,-0.297,-0.2987,-0.2983,-0.2979,-0.2978,-0.2729,-0.2726,0,0,0,0,0,0,-0.3027,-0.3026,-0.3101,-0.3106,-0.3067,-0.3113,-0.3118,-0.3126,-0.308,-0.3076,-0.3144,-0.3143,-0.3055,-0.3043,-0.3032,-0.2884,-0.2982,-0.2977,-0.2974,-0.2733,-0.2729,-0.2725,0,0,0,0,0,0,-0.3024,-0.3032,-0.3098,-0.3073,-0.3083,-0.3116,-0.3124,-0.3127,-0.3112,-0.3099,-0.3089,-0.3123,-0.3054,-0.3039,-0.294,-0.2883,-0.2975,-0.297,-0.2737,-0.2732,-0.2727,-0.2665,0,0,0,0,0,0,-0.3021,-0.303,-0.3021,-0.3073,-0.3085,-0.3055,-0.3125,-0.3129,-0.3128,-0.3127,-0.3077,-0.3066,-0.3052,-0.2947,-0.2935,-0.2878,-0.2967,-0.2742,-0.2735,-0.2728,-0.2671,-0.2658,-0.2646,0,0,0,0,0,-0.3016,-0.2972,-0.302,-0.3029,-0.3076,-0.3052,-0.3054,-0.3075,-0.3127,-0.3069,-0.3056,-0.3066,-0.2895,-0.294,-0.2927,-0.2867,-0.2745,-0.2737,-0.2729,-0.2677,-0.2661,-0.2647,0,0,0,0,0,0,-0.2895,-0.2971,-0.3023,-0.3,-0.3007,-0.3052,-0.3018,-0.3062,-0.3018,-0.3029,-0.3023,-0.3006,-0.2896,-0.2883,-0.2933,-0.277,-0.282,-0.2809,-0.2785,-0.2769,-0.2757,-0.2722,-0.2963,0,0,0,0,0,-0.2882,-0.2882,-0.2941,-0.2918,-0.2923,-0.2982,-0.2981,-0.3007,-0.2997,-0.2981,-0.2951,-0.2915,-0.2857,-0.2815,-0.2756,-0.2672,-0.2654,-0.262,-0.2608,-0.2597,-0.2555,-0.2493,-0.2471,-0.2698,-0.2698,-0.2698,0,0,-0.2843,-0.2875,-0.2883,-0.2896,-0.2918,-0.2886,-0.2972,-0.2958,-0.2924,-0.2969,-0.2877,-0.2863,-0.2822,-0.2721,-0.2671,-0.2701,-0.2523,-0.2587,-0.2579,-0.2541,-0.2482,-0.246,-0.2441,-0.2692,-0.2693,-0.2694,0,0,-0.2713,-0.2781,-0.2722,-0.2737,-0.2765,-0.2801,-0.2791,-0.2821,-0.2812,-0.2755,-0.2774,-0.2716,-0.2637,-0.259,-0.2564,-0.244,-0.2457,-0.243,-0.2339,-0.228,-0.2262,-0.2245,-0.2207,-0.2187,-0.2427,-0.2427,-0.2427,0,-0.2645,-0.2611,-0.2689,-0.2636,-0.2645,-0.2753,-0.2688,-0.2696,-0.2684,-0.2668,-0.2696,-0.2594,-0.2567,-0.2455,-0.2413,-0.2411,-0.2392,-0.2414,-0.2267,-0.225,-0.2234,-0.2199,-0.2178,-0.2423,-0.2423,-0.2424,-0.2424,0,-0.2474,-0.2468,-0.2428,-0.2423,-0.2422,-0.2391,-0.2446,-0.243,-0.2476,-0.2497,-0.2407,-0.2385,-0.2331,-0.2313,-0.2326,-0.2196,-0.2224,-0.2264,-0.2317,-0.2208,-0.2177,-0.2157,-0.2417,-0.2419,-0.242,-0.2421,0,0,-0.2254,-0.23,-0.2284,-0.2299,-0.2328,-0.2323,-0.2271,-0.2252,-0.2251,-0.2229,-0.2176,-0.2092,-0.2138,-0.2106,-0.2122,-0.2061,-0.1953,-0.2109,-0.2108,-0.2089,-0.183,-0.1771,-0.1745,-0.1981,-0.1977,-0.1973,-0.1861,0,-0.2082,-0.1996,-0.2042,-0.1982,-0.1967,-0.2071,-0.2028,-0.2051,-0.2077,-0.2053,-0.2052,-0.2009,-0.2047,-0.2045,-0.1981,-0.1978,-0.1892,-0.198,-0.1919,-0.1916,-0.1893,-0.1715,-0.1605,-0.1487,-0.1841,-0.1838,-0.1835,0,-0.1878,-0.1871,-0.1785,-0.1856,-0.1851,-0.1826,-0.1854,-0.1834,-0.1849,-0.1872,-0.1847,-0.1882,-0.1804,-0.1862,-0.1753,-0.1817,-0.1784,-0.1771,-0.1768,-0.1709,-0.1816,-0.1645,-0.1437,-0.1444,-0.1804,-0.1807,-0.1809,0,-0.1731,-0.1698,-0.1648,-0.1666,-0.1728,-0.1708,-0.1734,-0.1766,-0.1782,-0.1765,-0.1789,-0.1722,-0.172,-0.1652,-0.1656,-0.1701,-0.1539,-0.1617,-0.1509,-0.1509,-0.1392,-0.1386,-0.1187,-0.1463,-0.1463,-0.1463,-0.1464,0,-0.1563,-0.1531,-0.1594,-0.1587,-0.1557,-0.1626,-0.1603,-0.1631,-0.1666,-0.1636,-0.17,-0.1643,-0.1666,-0.1616,-0.1591,-0.1481,-0.149,-0.1421,-0.1438,-0.1368,-0.1361,-0.1348,-0.1401,-0.1459,-0.146,-0.1461,-0.1462,0,-0.1431,-0.146,-0.1438,-0.1485,-0.1502,-0.1492,-0.1574,-0.1579,-0.162,-0.1578,-0.1574,-0.1593,-0.1506,-0.1525,-0.1422,-0.1405,-0.1271,-0.1257,-0.1183,-0.1189,-0.1098,-0.1153,-0.0968,-0.0945,-0.1104,-0.1101,-0.1099,0,-0.136,-0.1333,-0.1378,-0.1381,-0.14,-0.1421,-0.145,-0.1534,-0.1535,-0.1495,-0.1452,-0.1404,-0.1244,-0.1144,-0.1139,-0.1062,-0.1123,-0.0939,-0.0968,-0.0996,-0.1072,-0.1146,-0.1148,-0.0808,-0.0803,-0.08,-0.0797,0,-0.124,-0.1259,-0.1259,-0.127,-0.1292,-0.1309,-0.1335,-0.1327,-0.1355,-0.1283,-0.1078,-0.0927,-0.0883,-0.0709,-0.0734,-0.0731,-0.0914,-0.0859,-0.0883,-0.077,-0.0836,-0.0858,-0.1024,-0.0764,-0.0767,-0.077,-0.0772,-0.0773,-0.1155,-0.1134,-0.1142,-0.1143,-0.117,-0.112,-0.1049,-0.1036,-0.0924,-0.0729,-0.0685,-0.0415,-0.0292,-0.0279,-0.0381,-0.0529,-0.0629,-0.0521,-0.0573,-0.0638,-0.0615,-0.0705,-0.0479,-0.0481,-0.0482,-0.0483,-0.0484,0,-0.1038,-0.1027,-0.1021,-0.0987,-0.0945,-0.0998,-0.0925,-0.0797,-0.0538,-0.0402,-0.0152,0.0153,0.0254,0.011,-0.0053,-0.018,-0.0304,-0.029,-0.0362,-0.0371,-0.0412,-0.0398,-0.0148,-0.0148,-0.0148,-0.0148,-0.0148,-0.0148,-0.0972,-0.0917,-0.0917,-0.0778,-0.074,-0.0582,-0.0479,-0.0285,-0.0155,0.0184,0.0343,0.0417,0.0444,0.035,0.0071,-0.0059,-0.0172,-0.0197,-0.0293,-0.0336,-0.0363,-0.0389,-0.0384,-0.0135,-0.0135,-0.0202,-0.0203,-0.0203]},{"header":{"parameterUnit":"m.s-1","parameterCategory":2,"la1":30.2991,"la2":30.254,"lo1":-89.0895,"lo2":-89.0444,"dy":0.0017,"dx":0.0017,"nx":28,"ny":28,"refTime":"2025-09-12T21:00:00:Z","depth":"0","parameterNumber":3,"parameterNumberName":"V-component_of_CURRENTS"},"data":[0,0,0,0,0,0,0,0,0,0,0,0,0,0,0,0,0,0,0,0,0,0,0,0,0,0,0,0,0,0,0,0,0,0,0,0,0,0,0,0,0,0,0,0,0,0,0,0,0,0,0,0,0,0,0,0,0,0,0.0257,0.026,0,0.0464,0.0466,0.0468,0.0591,0.0592,0.0593,0.0593,0.0714,0.0716,0.0718,0,0,0,0,0,0,0,0,0,0,0,0,0,0.0005,0.0008,0.0257,0.026,0.0263,0.0463,0.0466,0.0468,0.059,0.0592,0.0593,0.0594,0.0713,0.0716,0.0718,0,0,0,0,0,0,0,0,0,0,0,0,0,0.0149,0.0009,0.0256,0.0351,0.0362,0.0463,0.0466,0.0469,0.059,0.0592,0.0593,0.0594,0.0712,0.0715,0.0719,0.0712,0,0,0.0729,0.0731,0,0,0,0,0,0,0,0,0.014,0.0157,0.0334,0.0345,0.0357,0.0507,0.0422,0.0547,0.059,0.0499,0.0593,0.0595,0.0638,0.0648,0.0679,0.0717,0.0722,0.073,0.0732,0.0733,0.0734,0,0,0,0,0,0,0,0.013,0.015,0.0334,0.0337,0.0352,0.0397,0.0418,0.0446,0.0553,0.0507,0.0518,0.0547,0.0643,0.0675,0.0682,0.0724,0.073,0.0733,0.0735,0.0736,0.0726,0.0723,0,0,0,0,0,0,0.0111,0.014,0.0328,0.0341,0.0255,0.04,0.0423,0.0454,0.0555,0.0574,0.0546,0.0552,0.0668,0.0678,0.0687,0.0674,0.0733,0.0737,0.0739,0.0728,0.0725,0.0723,0,0,0,0,0,0,0.0104,0.0125,0.032,0.0248,0.0277,0.0403,0.0436,0.0457,0.0488,0.0586,0.0603,0.0555,0.067,0.0682,0.07,0.068,0.0738,0.0741,0.0731,0.0727,0.0724,0.0654,0,0,0,0,0,0,0.0096,0.0122,0.0117,0.0247,0.028,0.0337,0.0436,0.046,0.0506,0.0516,0.0599,0.0613,0.0672,0.0694,0.0703,0.0686,0.0744,0.0734,0.0729,0.0725,0.066,0.0649,0.064,0,0,0,0,0,0.0086,0.0062,0.0116,0.0138,0.0277,0.0335,0.0353,0.0447,0.0505,0.0485,0.0561,0.061,0.0672,0.0695,0.0706,0.069,0.0736,0.073,0.0725,0.0664,0.0651,0.064,0,0,0,0,0,0,-0.0062,0.0077,0.0138,0.0156,0.0227,0.0357,0.0351,0.0431,0.0479,0.0489,0.059,0.0606,0.0616,0.0645,0.0669,0.0666,0.0707,0.0703,0.0656,0.0644,0.0634,0.0618,0.0747,0,0,0,0,0,-0.0092,-0.0063,0.0064,0.0075,0.0101,0.0226,0.0261,0.0329,0.0404,0.043,0.0497,0.0554,0.0601,0.0617,0.0652,0.0648,0.0667,0.0637,0.0627,0.0619,0.0608,0.0602,0.0591,0.0705,0.0705,0.0705,0,0,-0.0138,-0.0064,-0.0044,0.0046,0.011,0.014,0.0247,0.0281,0.0313,0.043,0.0457,0.0521,0.0591,0.0602,0.0606,0.0625,0.0595,0.0612,0.0605,0.0599,0.0595,0.0584,0.0575,0.0702,0.0702,0.0703,0,0,-0.0222,-0.0164,-0.0163,-0.0117,-0.0029,0.0047,0.0051,0.0166,0.0209,0.0246,0.035,0.0402,0.0449,0.0519,0.0559,0.0504,0.0545,0.0497,0.0438,0.0431,0.0423,0.0415,0.0429,0.0423,0.0489,0.0489,0.0489,0,-0.0287,-0.0244,-0.0165,-0.0158,-0.0118,-0.0,0.0007,0.0059,0.0166,0.0196,0.0226,0.0342,0.0417,0.0468,0.0467,0.0487,0.0483,0.0489,0.0421,0.0414,0.0407,0.0423,0.0418,0.0485,0.0485,0.0486,0.0486,0,-0.0344,-0.032,-0.0332,-0.026,-0.0234,-0.0216,-0.0121,-0.0099,-0.0025,0.0053,0.0098,0.02,0.0277,0.0304,0.0383,0.038,0.0394,0.0415,0.0458,0.0392,0.0413,0.0408,0.0479,0.048,0.0482,0.0483,0,0,-0.0432,-0.0375,-0.0374,-0.0351,-0.0276,-0.0251,-0.0239,-0.0169,-0.0137,-0.0077,-0.0036,0.0064,0.0133,0.0181,0.0277,0.0286,0.0275,0.0324,0.0326,0.035,0.0255,0.0304,0.0305,0.027,0.0269,0.0268,0.0291,0,-0.0483,-0.0488,-0.0441,-0.044,-0.0425,-0.0347,-0.0333,-0.0272,-0.0206,-0.0156,-0.0064,0.0004,0.008,0.0135,0.015,0.0264,0.0257,0.0267,0.0305,0.0307,0.0368,0.0299,0.0382,0.0411,0.0288,0.0287,0.0286,0,-0.0519,-0.0513,-0.0526,-0.0486,-0.0475,-0.0468,-0.0411,-0.0382,-0.0304,-0.0256,-0.02,-0.0114,-0.0036,0.0016,0.0105,0.0098,0.0157,0.0217,0.0219,0.0285,0.0346,0.0454,0.0409,0.0457,0.0281,0.0281,0.0281,0,-0.0567,-0.0558,-0.0565,-0.0553,-0.0508,-0.0508,-0.048,-0.0413,-0.0376,-0.0313,-0.0269,-0.0204,-0.0122,-0.0088,0.0069,0.007,0.0145,0.0168,0.0249,0.0255,0.0345,0.036,0.0364,0.0171,0.0171,0.0171,0.0171,0,-0.0599,-0.0603,-0.059,-0.0591,-0.0605,-0.0558,-0.0555,-0.0512,-0.0444,-0.0349,-0.0315,-0.0207,-0.015,-0.0068,0.0015,0.0133,0.0098,0.0224,0.0253,0.0323,0.0335,0.04,0.0414,0.0172,0.0171,0.0171,0.0171,0,-0.063,-0.0619,-0.0632,-0.0621,-0.0622,-0.0631,-0.0599,-0.0571,-0.051,-0.0386,-0.036,-0.0227,-0.0106,-0.0061,0.0048,0.0107,0.0244,0.0232,0.0322,0.036,0.0467,0.0475,0.0489,0.0567,0.0302,0.0304,0.0304,0,-0.0639,-0.0649,-0.0669,-0.0685,-0.0682,-0.0691,-0.0672,-0.0612,-0.0515,-0.0327,-0.0216,-0.0126,0.0077,0.0183,0.0209,0.0267,0.032,0.0391,0.0407,0.0466,0.0496,0.0484,0.0548,0.0505,0.0508,0.051,0.0512,0,-0.0661,-0.0672,-0.0688,-0.0724,-0.0724,-0.069,-0.0612,-0.0538,-0.0367,-0.0216,0.0103,0.0254,0.0323,0.0462,0.0428,0.0465,0.0454,0.0436,0.047,0.062,0.0634,0.0727,0.0506,0.053,0.0528,0.0527,0.0526,0.0525,-0.0677,-0.0702,-0.0722,-0.075,-0.0729,-0.0591,-0.0485,-0.0327,-0.0102,0.0277,0.0402,0.0707,0.0742,0.0716,0.0674,0.062,0.0592,0.0702,0.0698,0.0673,0.0763,0.0584,0.0655,0.0654,0.0653,0.0652,0.0651,0,-0.0681,-0.0702,-0.0738,-0.0693,-0.0594,-0.0587,-0.0361,-0.0162,0.02,0.0513,0.0854,0.1156,0.1165,0.105,0.093,0.0922,0.089,0.0931,0.0937,0.0987,0.0815,0.0841,0.0989,0.0989,0.0989,0.0988,0.0988,0.0988,-0.0681,-0.0707,-0.0722,-0.0558,-0.0479,-0.0212,-0.0028,0.0257,0.0528,0.1042,0.1343,0.1549,0.15,0.1246,0.1125,0.1111,0.1156,0.113,0.1143,0.1024,0.1003,0.0982,0.1009,0.1189,0.1189,0.1361,0.1362,0.1363]}],[{"header":{"parameterUnit":"m.s-1","parameterCategory":2,"la1":30.2991,"la2":30.254,"lo1":-89.0895,"lo2":-89.0444,"dy":0.0017,"dx":0.0017,"nx":28,"ny":28,"refTime":"2025-09-12T21:00:00:Z","depth":"2","parameterNumber":2,"parameterNumberName":"U-component_of_CURRENTS"},"data":[0,0,0,0,0,0,0,0,0,0,0,0,0,0,0,0,0,0,0,0,0,0,0,0,0,0,0,0,0,0,0,0,0,0,0,0,0,0,0,0,0,0,0,0,0,0,0,0,0,0,0,0,0,0,0,0,0,0,-0.1781,-0.1782,0,-0.1853,-0.1854,-0.1855,-0.1898,-0.1898,-0.1898,-0.1898,-0.1937,-0.1938,-0.1939,0,0,0,0,0,0,0,0,0,0,0,0,0,-0.1747,-0.1747,-0.1781,-0.1782,-0.1783,-0.1853,-0.1854,-0.1855,-0.1898,-0.1898,-0.1898,-0.1898,-0.1937,-0.1938,-0.1939,0,0,0,0,0,0,0,0,0,0,0,0,0,-0.1785,-0.1747,-0.1781,-0.1812,-0.1815,-0.1853,-0.1854,-0.1855,-0.1898,-0.1898,-0.1898,-0.1898,-0.1937,-0.1938,-0.1939,-0.1945,0,0,-0.1944,-0.1944,0,0,0,0,0,0,0,0,-0.1783,-0.1786,-0.1806,-0.181,-0.1813,-0.1866,-0.1856,-0.1884,-0.1898,-0.1867,-0.1898,-0.1898,-0.191,-0.1913,-0.1928,-0.1947,-0.1949,-0.1944,-0.1945,-0.1945,-0.1946,0,0,0,0,0,0,0,-0.178,-0.1784,-0.1811,-0.1807,-0.1812,-0.1845,-0.185,-0.1862,-0.1887,-0.187,-0.1873,-0.1879,-0.1911,-0.1927,-0.1929,-0.1949,-0.1944,-0.1945,-0.1946,-0.1947,-0.2028,-0.2029,0,0,0,0,0,0,-0.1765,-0.1781,-0.1808,-0.1813,-0.1797,-0.1845,-0.1851,-0.185,-0.1888,-0.1894,-0.1879,-0.1881,-0.1924,-0.1928,-0.1931,-0.1928,-0.1945,-0.1947,-0.1948,-0.2027,-0.2028,-0.203,0,0,0,0,0,0,-0.1764,-0.1767,-0.1805,-0.1798,-0.1805,-0.1844,-0.1844,-0.1851,-0.188,-0.1895,-0.19,-0.1902,-0.1925,-0.1929,-0.1956,-0.193,-0.1947,-0.1949,-0.2025,-0.2027,-0.2029,-0.193,0,0,0,0,0,0,-0.1763,-0.1766,-0.1771,-0.1797,-0.1805,-0.1811,-0.1844,-0.1852,-0.1882,-0.1886,-0.1916,-0.1919,-0.1925,-0.1954,-0.1958,-0.1933,-0.195,-0.2024,-0.2026,-0.2028,-0.1932,-0.1928,-0.1926,0,0,0,0,0,-0.1761,-0.1754,-0.1771,-0.1775,-0.1807,-0.181,-0.1816,-0.1847,-0.1883,-0.1879,-0.1921,-0.1919,-0.1973,-0.1956,-0.196,-0.1935,-0.2022,-0.2025,-0.2028,-0.1933,-0.1929,-0.1926,0,0,0,0,0,0,-0.1738,-0.1758,-0.1777,-0.1777,-0.1788,-0.1816,-0.1829,-0.1855,-0.1888,-0.1905,-0.193,-0.1935,-0.1942,-0.1975,-0.1957,-0.1975,-0.1999,-0.2003,-0.1926,-0.1922,-0.1919,-0.1879,-0.1951,0,0,0,0,0,-0.1736,-0.1739,-0.1758,-0.1759,-0.1769,-0.1808,-0.1822,-0.1837,-0.1866,-0.1883,-0.1911,-0.1949,-0.1957,-0.197,-0.1984,-0.1998,-0.1988,-0.1993,-0.199,-0.1987,-0.1963,-0.1935,-0.1925,-0.2039,-0.2039,-0.2039,0,0,-0.1735,-0.1741,-0.1749,-0.1755,-0.178,-0.1785,-0.1817,-0.1831,-0.1833,-0.1881,-0.1909,-0.193,-0.196,-0.1962,-0.1971,-0.1986,-0.1952,-0.1991,-0.1986,-0.1964,-0.1937,-0.1925,-0.1914,-0.2041,-0.2041,-0.2041,0,0,-0.1715,-0.1735,-0.1732,-0.1739,-0.1759,-0.1776,-0.1781,-0.1816,-0.1829,-0.1861,-0.1883,-0.1881,-0.1948,-0.192,-0.1927,-0.1923,-0.1929,-0.1962,-0.1912,-0.1885,-0.1873,-0.1863,-0.1828,-0.1815,-0.1968,-0.1968,-0.1968,0,-0.1711,-0.1707,-0.173,-0.1725,-0.1735,-0.1773,-0.1771,-0.1783,-0.1821,-0.1829,-0.1864,-0.1909,-0.1909,-0.1877,-0.187,-0.19,-0.1909,-0.1909,-0.1872,-0.1862,-0.1853,-0.182,-0.1807,-0.1964,-0.1964,-0.1965,-0.1965,0,-0.1688,-0.1692,-0.1691,-0.1701,-0.171,-0.171,-0.1729,-0.1745,-0.1789,-0.1805,-0.1807,-0.1811,-0.1835,-0.1832,-0.1845,-0.1787,-0.1821,-0.1856,-0.1861,-0.1834,-0.1803,-0.1791,-0.1957,-0.1959,-0.196,-0.1961,0,0,-0.1642,-0.1671,-0.1667,-0.1675,-0.1697,-0.1697,-0.1705,-0.1711,-0.1718,-0.1747,-0.1746,-0.1726,-0.174,-0.1746,-0.1749,-0.1713,-0.1629,-0.1762,-0.1763,-0.169,-0.1579,-0.1507,-0.1488,-0.1676,-0.1674,-0.1672,-0.1579,0,-0.1615,-0.1601,-0.1625,-0.1623,-0.1624,-0.1662,-0.1664,-0.1676,-0.1703,-0.171,-0.1693,-0.1695,-0.1706,-0.1708,-0.1669,-0.1652,-0.1598,-0.1651,-0.165,-0.1648,-0.1555,-0.1471,-0.1369,-0.127,-0.1567,-0.1565,-0.1564,0,-0.1566,-0.1569,-0.1559,-0.1588,-0.1595,-0.1597,-0.1616,-0.1622,-0.1632,-0.1656,-0.1653,-0.1667,-0.1601,-0.1626,-0.1547,-0.1601,-0.1567,-0.1547,-0.1545,-0.1497,-0.1553,-0.1352,-0.1238,-0.1544,-0.1546,-0.1547,-0.1549,0,-0.1496,-0.1514,-0.1505,-0.1512,-0.1552,-0.1555,-0.1578,-0.1601,-0.1611,-0.1608,-0.1629,-0.159,-0.157,-0.1533,-0.1493,-0.1533,-0.1412,-0.1467,-0.1356,-0.1353,-0.1268,-0.126,-0.1373,-0.1373,-0.1373,-0.1374,-0.1374,0,-0.1433,-0.1424,-0.1472,-0.1464,-0.1466,-0.1509,-0.1511,-0.1535,-0.156,-0.1555,-0.1586,-0.1562,-0.1551,-0.1502,-0.1469,-0.1362,-0.1391,-0.1301,-0.1305,-0.1235,-0.1225,-0.1481,-0.1495,-0.137,-0.1371,-0.1371,-0.1372,0,-0.1342,-0.1372,-0.1368,-0.1414,-0.1428,-0.1426,-0.1484,-0.1477,-0.1525,-0.1515,-0.1515,-0.153,-0.1454,-0.1423,-0.1341,-0.1313,-0.123,-0.1181,-0.109,-0.1082,-0.1197,-0.1208,-0.1045,-0.1042,-0.1039,-0.1036,-0.1034,0,-0.1287,-0.1275,-0.1321,-0.132,-0.1337,-0.1357,-0.1362,-0.1434,-0.143,-0.1479,-0.1449,-0.1412,-0.1354,-0.1222,-0.112,-0.1011,-0.1099,-0.0885,-0.0909,-0.1133,-0.1155,-0.1171,-0.1185,-0.0767,-0.0763,-0.0759,-0.0757,0,-0.1192,-0.1212,-0.1216,-0.1219,-0.1223,-0.1238,-0.1254,-0.1259,-0.1322,-0.1342,-0.1326,-0.1299,-0.1166,-0.1006,-0.0875,-0.0805,-0.09,-0.081,-0.1043,-0.087,-0.0864,-0.0888,-0.0913,-0.0726,-0.0729,-0.0731,-0.0733,-0.0734,-0.1117,-0.1101,-0.1107,-0.1101,-0.1106,-0.1086,-0.1063,-0.1092,-0.1098,-0.1089,-0.1147,-0.1068,-0.1032,-0.0751,-0.0661,-0.0559,-0.0636,-0.0626,-0.064,-0.0656,-0.0645,-0.0633,-0.0449,-0.0451,-0.0452,-0.0453,-0.0454,0,-0.1013,-0.1001,-0.0988,-0.0968,-0.0922,-0.097,-0.0957,-0.0916,-0.0883,-0.0891,-0.0884,-0.0754,-0.0635,-0.0574,-0.0366,-0.0328,-0.0346,-0.0314,-0.0365,-0.0393,-0.0419,-0.04,-0.0137,-0.0137,-0.0136,-0.0136,0,0,-0.0953,-0.0899,-0.0893,-0.0785,-0.0768,-0.0681,-0.0654,-0.0627,-0.0607,-0.0559,-0.0523,-0.058,-0.0563,-0.0383,-0.032,-0.0199,-0.0296,-0.016,-0.0407,-0.0496,-0.0522,-0.0581,-0.0579,0,0,0,0,0]},{"header":{"parameterUnit":"m.s-1","parameterCategory":2,"la1":30.2991,"la2":30.254,"lo1":-89.0895,"lo2":-89.0444,"dy":0.0017,"dx":0.0017,"nx":28,"ny":28,"refTime":"2025-09-12T21:00:00:Z","depth":"2","parameterNumber":3,"parameterNumberName":"V-component_of_CURRENTS"},"data":[0,0,0,0,0,0,0,0,0,0,0,0,0,0,0,0,0,0,0,0,0,0,0,0,0,0,0,0,0,0,0,0,0,0,0,0,0,0,0,0,0,0,0,0,0,0,0,0,0,0,0,0,0,0,0,0,0,0,-0.0393,-0.0392,0,-0.0326,-0.0324,-0.0323,-0.0275,-0.0275,-0.0275,-0.0275,-0.0208,-0.0206,-0.0204,0,0,0,0,0,0,0,0,0,0,0,0,0,-0.0448,-0.0447,-0.0393,-0.0392,-0.0392,-0.0326,-0.0324,-0.0323,-0.0275,-0.0275,-0.0275,-0.0275,-0.0209,-0.0207,-0.0204,0,0,0,0,0,0,0,0,0,0,0,0,0,-0.0402,-0.0447,-0.0393,-0.0364,-0.0361,-0.0326,-0.0324,-0.0323,-0.0275,-0.0275,-0.0275,-0.0276,-0.021,-0.0207,-0.0204,-0.0184,0,0,-0.0195,-0.0194,0,0,0,0,0,0,0,0,-0.0404,-0.0399,-0.0369,-0.0366,-0.0363,-0.0314,-0.0319,-0.0278,-0.0275,-0.0302,-0.0275,-0.0276,-0.0247,-0.0241,-0.022,-0.0181,-0.0178,-0.0195,-0.0193,-0.0192,-0.0191,0,0,0,0,0,0,0,-0.0408,-0.0402,-0.0361,-0.0368,-0.0365,-0.0344,-0.0337,-0.0311,-0.027,-0.03,-0.0298,-0.0298,-0.0244,-0.0223,-0.0219,-0.0177,-0.0195,-0.0193,-0.0191,-0.019,-0.0066,-0.0065,0,0,0,0,0,0,-0.0428,-0.0405,-0.0363,-0.0359,-0.039,-0.0344,-0.0336,-0.0325,-0.0271,-0.0264,-0.0298,-0.0297,-0.0228,-0.0222,-0.0216,-0.0173,-0.0192,-0.019,-0.0188,-0.0068,-0.0066,-0.0064,0,0,0,0,0,0,-0.0429,-0.0424,-0.0366,-0.0385,-0.0377,-0.0343,-0.0331,-0.0324,-0.0298,-0.0271,-0.0263,-0.0281,-0.0228,-0.022,-0.018,-0.0171,-0.0188,-0.0186,-0.007,-0.0067,-0.0065,-0.0099,0,0,0,0,0,0,-0.0431,-0.0425,-0.0419,-0.0386,-0.0377,-0.0347,-0.0331,-0.0322,-0.0302,-0.0298,-0.0253,-0.0247,-0.0227,-0.0184,-0.0177,-0.0168,-0.0184,-0.0072,-0.0069,-0.0066,-0.0099,-0.0098,-0.0096,0,0,0,0,0,-0.0433,-0.0425,-0.0419,-0.0414,-0.0372,-0.0348,-0.034,-0.0313,-0.0301,-0.029,-0.0252,-0.0248,-0.016,-0.0181,-0.0173,-0.0163,-0.0073,-0.007,-0.0066,-0.01,-0.0098,-0.0096,0,0,0,0,0,0,-0.0442,-0.0419,-0.0412,-0.0396,-0.0378,-0.0342,-0.0329,-0.0312,-0.0271,-0.0265,-0.0233,-0.0224,-0.0192,-0.0161,-0.0185,-0.0113,-0.0114,-0.0109,-0.0142,-0.014,-0.0138,-0.0147,-0.0181,0,0,0,0,0,-0.0445,-0.0435,-0.0411,-0.04,-0.039,-0.0358,-0.0344,-0.0328,-0.0294,-0.0275,-0.0242,-0.02,-0.017,-0.0143,-0.0117,-0.0073,-0.0057,-0.0055,-0.0054,-0.0053,-0.0051,-0.0021,-0.0018,-0.0053,-0.0053,-0.0053,0,0,-0.0451,-0.0435,-0.0431,-0.0403,-0.0381,-0.0362,-0.0347,-0.0327,-0.0306,-0.0275,-0.0228,-0.0205,-0.016,-0.012,-0.01,-0.0091,-0.0032,-0.0048,-0.0048,-0.0047,-0.0017,-0.0014,-0.0012,-0.005,-0.0051,-0.0051,0,0,-0.0455,-0.0437,-0.0428,-0.0411,-0.0387,-0.0365,-0.0361,-0.0322,-0.0298,-0.0257,-0.0233,-0.0199,-0.0138,-0.0108,-0.0084,-0.005,-0.0038,-0.0035,-0.0021,0.0007,0.001,0.0012,0.0035,0.0039,-0.0018,-0.0018,-0.0019,0,-0.0462,-0.0446,-0.0423,-0.0406,-0.0395,-0.0367,-0.0355,-0.0322,-0.0275,-0.0254,-0.0245,-0.016,-0.0133,-0.0084,-0.0069,-0.0051,-0.0031,-0.0042,0.0006,0.0008,0.0011,0.0034,0.0039,-0.002,-0.002,-0.0019,-0.0019,0,-0.0458,-0.0444,-0.0435,-0.0405,-0.0387,-0.0374,-0.0337,-0.0309,-0.028,-0.0248,-0.02,-0.0157,-0.0107,-0.0089,-0.0068,-0.0027,-0.0019,-0.0015,-0.0011,0.0012,0.0036,0.0041,-0.0021,-0.0021,-0.0021,-0.002,0,0,-0.048,-0.0442,-0.044,-0.0433,-0.0388,-0.0378,-0.0337,-0.0298,-0.0275,-0.0222,-0.0187,-0.0129,-0.0109,-0.008,-0.0051,-0.0014,0.0016,-0.0,0.0002,0.0002,0.0079,0.0103,0.0112,0.0026,0.0028,0.0028,0.0086,0,-0.0486,-0.047,-0.0441,-0.0426,-0.0416,-0.0377,-0.0344,-0.0304,-0.0262,-0.0218,-0.0166,-0.0128,-0.0103,-0.0087,-0.0044,-0.0006,0.0032,-0.0,0.0076,0.0078,0.0079,0.012,0.0112,0.0165,0.0092,0.0093,0.0094,0,-0.049,-0.0482,-0.0473,-0.0446,-0.0437,-0.0421,-0.0378,-0.0345,-0.0273,-0.0239,-0.0183,-0.0144,-0.0083,-0.0072,0.0017,-0.0003,0.0039,0.0072,0.0075,0.0113,0.0114,0.0135,0.0179,0.0104,0.0103,0.0102,0.0101,0,-0.0529,-0.0504,-0.0504,-0.0494,-0.0454,-0.0443,-0.042,-0.0356,-0.0327,-0.0259,-0.0227,-0.0152,-0.011,-0.005,0.003,0.0023,0.0125,0.0119,0.0183,0.0184,0.0202,0.0204,0.0182,0.0182,0.0181,0.0181,0.0181,0,-0.0546,-0.0546,-0.0529,-0.053,-0.0532,-0.0487,-0.0472,-0.0431,-0.0368,-0.033,-0.0248,-0.0193,-0.0101,-0.0025,0.0032,0.0134,0.0129,0.0194,0.0207,0.0192,0.0193,0.0158,0.0155,0.0183,0.0183,0.0183,0.0182,0,-0.058,-0.0566,-0.0572,-0.0554,-0.0551,-0.0556,-0.0517,-0.0498,-0.043,-0.0379,-0.0358,-0.0222,-0.0108,-0.0016,0.0093,0.0143,0.0223,0.0257,0.0234,0.0244,0.0259,0.0254,0.0331,0.0333,0.0334,0.0335,0.0336,0,-0.059,-0.0598,-0.0608,-0.0619,-0.0614,-0.0612,-0.0602,-0.0543,-0.0517,-0.0388,-0.0363,-0.0225,-0.0108,0.0073,0.0181,0.0291,0.0278,0.0334,0.0321,0.0273,0.0278,0.027,0.0263,0.033,0.0331,0.0331,0.0332,0,-0.0614,-0.0623,-0.0635,-0.0663,-0.0672,-0.0676,-0.0659,-0.0647,-0.0563,-0.0497,-0.0359,-0.0249,-0.0032,0.0125,0.0268,0.0326,0.0313,0.0351,0.0318,0.0293,0.0277,0.028,0.0272,0.0337,0.0337,0.0336,0.0336,0.0336,-0.0635,-0.0658,-0.0676,-0.07,-0.0716,-0.0722,-0.0715,-0.0678,-0.0625,-0.0492,-0.0383,-0.0182,-0.0045,0.0204,0.0293,0.0392,0.0395,0.0398,0.0394,0.039,0.0379,0.0366,0.0442,0.0442,0.0442,0.0442,0.0442,0,-0.0647,-0.0671,-0.0702,-0.0729,-0.0748,-0.0746,-0.0731,-0.0697,-0.063,-0.0475,-0.0329,-0.0149,0.0032,0.0193,0.0364,0.0436,0.0416,0.0435,0.0391,0.0386,0.0382,0.0368,0.0429,0.0429,0.0428,0.0428,0,0,-0.0654,-0.0684,-0.0701,-0.0739,-0.0759,-0.0759,-0.0747,-0.0685,-0.0571,-0.0407,-0.0246,-0.0094,0.0092,0.0175,0.0273,0.0376,0.0357,0.0378,0.0385,0.0319,0.0313,0.0363,0.0338,0,0,0,0,0]}],[{"header":{"parameterUnit":"m.s-1","parameterCategory":2,"la1":30.2991,"la2":30.254,"lo1":-89.0895,"lo2":-89.0444,"dy":0.0017,"dx":0.0017,"nx":28,"ny":28,"refTime":"2025-09-12T21:00:00:Z","depth":"4","parameterNumber":2,"parameterNumberName":"U-component_of_CURRENTS"},"data":[0,0,0,0,0,0,0,0,0,0,0,0,0,0,0,0,0,0,0,0,0,0,0,0,0,0,0,0,0,0,0,0,0,0,0,0,0,0,0,0,0,0,0,0,0,0,0,0,0,0,0,0,0,0,0,0,0,0,-0.0996,-0.0997,0,-0.1007,-0.1007,-0.1007,-0.101,-0.101,-0.101,-0.1011,-0.1054,-0.1055,-0.1056,0,0,0,0,0,0,0,0,0,0,0,0,0,-0.0951,-0.0951,-0.0996,-0.0997,-0.0997,-0.1007,-0.1007,-0.1007,-0.101,-0.101,-0.101,-0.1011,-0.1054,-0.1055,-0.1056,0,0,0,0,0,0,0,0,0,0,0,0,0,-0.0964,-0.0952,-0.0996,-0.1002,-0.1003,-0.1007,-0.1007,-0.1007,-0.101,-0.101,-0.101,-0.1011,-0.1053,-0.1055,-0.1056,-0.1058,0,0,-0.106,-0.1061,0,0,0,0,0,0,0,0,-0.0963,-0.0965,-0.1001,-0.1002,-0.1003,-0.101,-0.1007,-0.1027,-0.101,-0.1004,-0.1011,-0.1011,-0.1044,-0.1046,-0.1043,-0.106,-0.1062,-0.106,-0.1061,-0.1062,-0.1062,0,0,0,0,0,0,0,-0.0962,-0.0965,-0.0997,-0.1001,-0.1003,-0.0995,-0.0997,-0.101,-0.102,-0.1004,-0.1005,-0.1012,-0.1045,-0.1041,-0.1044,-0.1062,-0.106,-0.1062,-0.1063,-0.1063,-0.1141,-0.1142,0,0,0,0,0,0,-0.0969,-0.0964,-0.0997,-0.0998,-0.0987,-0.0996,-0.0998,-0.1005,-0.1019,-0.1023,-0.1011,-0.1012,-0.1039,-0.1042,-0.1045,-0.109,-0.1062,-0.1063,-0.1064,-0.114,-0.1141,-0.1142,0,0,0,0,0,0,-0.0968,-0.0971,-0.0997,-0.0984,-0.0987,-0.0997,-0.1004,-0.1005,-0.1023,-0.1025,-0.1028,-0.1031,-0.1039,-0.1044,-0.1079,-0.109,-0.1064,-0.1065,-0.1138,-0.114,-0.1142,-0.1152,0,0,0,0,0,0,-0.0966,-0.0971,-0.0984,-0.0984,-0.0988,-0.1014,-0.1004,-0.1005,-0.1027,-0.1028,-0.1043,-0.1046,-0.104,-0.1077,-0.108,-0.1092,-0.1066,-0.1137,-0.1139,-0.1141,-0.1151,-0.1154,-0.1158,0,0,0,0,0,-0.0964,-0.0985,-0.0985,-0.0989,-0.1004,-0.1015,-0.1017,-0.1022,-0.1028,-0.1039,-0.1053,-0.1046,-0.1093,-0.1079,-0.1083,-0.1095,-0.1135,-0.1138,-0.1141,-0.1149,-0.1154,-0.1158,0,0,0,0,0,0,-0.0983,-0.0987,-0.0987,-0.1011,-0.1019,-0.1017,-0.1036,-0.1037,-0.1055,-0.1063,-0.1063,-0.1067,-0.1097,-0.1104,-0.1088,-0.1126,-0.1113,-0.1117,-0.1118,-0.1122,-0.1126,-0.1113,-0.1067,0,0,0,0,0,-0.0991,-0.0999,-0.1006,-0.1025,-0.1036,-0.1039,-0.1048,-0.105,-0.1063,-0.1071,-0.1082,-0.1098,-0.1107,-0.1123,-0.1131,-0.1159,-0.1146,-0.1171,-0.1175,-0.1178,-0.1171,-0.1177,-0.1179,-0.1151,-0.1151,-0.1151,0,0,-0.1002,-0.1007,-0.1012,-0.1028,-0.1038,-0.1051,-0.1046,-0.1067,-0.1073,-0.1074,-0.1102,-0.111,-0.1118,-0.1139,-0.1155,-0.1151,-0.1177,-0.1181,-0.1183,-0.1175,-0.118,-0.1182,-0.1184,-0.1153,-0.1153,-0.1153,0,0,-0.1027,-0.1038,-0.1054,-0.1061,-0.1079,-0.1076,-0.1089,-0.1101,-0.1106,-0.1131,-0.1127,-0.1143,-0.1176,-0.1168,-0.1171,-0.1204,-0.1191,-0.1221,-0.1232,-0.1238,-0.1239,-0.1241,-0.1212,-0.1211,-0.1228,-0.1228,-0.1228,0,-0.1044,-0.1061,-0.1063,-0.1081,-0.1093,-0.1092,-0.1114,-0.1113,-0.1132,-0.1145,-0.1148,-0.1183,-0.1179,-0.1195,-0.1198,-0.1207,-0.1207,-0.1211,-0.124,-0.1241,-0.1242,-0.1213,-0.1211,-0.1229,-0.1229,-0.1228,-0.1228,0,-0.1071,-0.1092,-0.1108,-0.1121,-0.1134,-0.1153,-0.1154,-0.117,-0.1181,-0.1182,-0.1212,-0.1207,-0.1229,-0.1229,-0.1219,-0.1232,-0.1226,-0.1237,-0.1222,-0.1245,-0.1213,-0.1211,-0.123,-0.123,-0.1229,-0.1229,0,0,-0.1085,-0.112,-0.1125,-0.1135,-0.1157,-0.1165,-0.1188,-0.1205,-0.1217,-0.1235,-0.1254,-0.1256,-0.1261,-0.1263,-0.1256,-0.1252,-0.1239,-0.1252,-0.1252,-0.121,-0.1237,-0.113,-0.1117,-0.1269,-0.1269,-0.1269,-0.1204,0,-0.1107,-0.1139,-0.1157,-0.1185,-0.1198,-0.1214,-0.123,-0.1243,-0.1254,-0.1267,-0.1268,-0.1278,-0.1272,-0.1278,-0.1277,-0.1248,-0.1239,-0.1254,-0.1232,-0.123,-0.1122,-0.1113,-0.127,-0.1203,-0.1202,-0.1202,-0.1202,0,-0.1114,-0.1136,-0.1172,-0.1203,-0.1216,-0.1234,-0.1261,-0.1274,-0.1292,-0.1305,-0.1328,-0.1323,-0.1313,-0.1304,-0.1276,-0.1295,-0.1266,-0.1241,-0.1239,-0.1132,-0.1119,-0.1181,-0.1198,-0.1198,-0.1198,-0.1199,-0.1199,0,-0.1082,-0.1137,-0.1163,-0.1174,-0.1215,-0.1242,-0.1266,-0.1291,-0.1299,-0.1323,-0.1329,-0.1341,-0.1322,-0.1317,-0.1257,-0.1279,-0.1212,-0.1237,-0.1111,-0.1103,-0.1214,-0.1214,-0.1216,-0.1216,-0.1216,-0.1217,-0.1217,0,-0.1064,-0.1085,-0.1152,-0.1158,-0.1191,-0.123,-0.1258,-0.1284,-0.1312,-0.1299,-0.1342,-0.1316,-0.1327,-0.1288,-0.1261,-0.1159,-0.1218,-0.1094,-0.1078,-0.1219,-0.122,-0.1211,-0.1212,-0.1214,-0.1215,-0.1215,-0.1215,0,-0.1002,-0.1049,-0.108,-0.1148,-0.1169,-0.1188,-0.1244,-0.1244,-0.1293,-0.1275,-0.128,-0.1288,-0.1223,-0.121,-0.116,-0.1126,-0.1064,-0.1016,-0.1133,-0.1128,-0.0953,-0.0955,-0.0876,-0.0872,-0.0868,-0.0865,-0.0862,0,-0.0964,-0.0976,-0.1057,-0.107,-0.1102,-0.1142,-0.1151,-0.1217,-0.1206,-0.1229,-0.1193,-0.1161,-0.1143,-0.0995,-0.1002,-0.0936,-0.0927,-0.0905,-0.0955,-0.0924,-0.0918,-0.0926,-0.0932,-0.0856,-0.0856,-0.0855,-0.0854,0,-0.0894,-0.0937,-0.0963,-0.0992,-0.1013,-0.1032,-0.1053,-0.1042,-0.1083,-0.1143,-0.1071,-0.1033,-0.0947,-0.0904,-0.0846,-0.0811,-0.0932,-0.0867,-0.0875,-0.0922,-0.09,-0.0899,-0.091,-0.0841,-0.0843,-0.0844,-0.0845,0,-0.0842,-0.0845,-0.0882,-0.0893,-0.0917,-0.0894,-0.0933,-0.091,-0.0921,-0.0959,-0.0921,-0.0901,-0.0915,-0.0834,-0.0785,-0.0732,-0.0731,-0.0737,-0.0752,-0.0767,-0.0759,-0.0717,-0.057,0,0,0,0,0,-0.0781,-0.0767,-0.0773,-0.0777,-0.0792,-0.0803,-0.0839,-0.0875,-0.0921,-0.0838,-0.0884,-0.0802,-0.073,-0.073,-0.0647,-0.0716,-0.0725,-0.0618,-0.074,-0.077,-0.0785,-0.0786,0,0,0,0,0,0,-0.0736,-0.0742,-0.0738,-0.0666,-0.0643,-0.0642,-0.0663,-0.0703,-0.0673,-0.0733,-0.0694,-0.075,-0.0684,-0.0743,-0.0625,-0.0621,-0.0681,-0.062,-0.0617,-0.0762,-0.0775,-0.0787,-0.0793,0,0,0,0,0]},{"header":{"parameterUnit":"m.s-1","parameterCategory":2,"la1":30.2991,"la2":30.254,"lo1":-89.0895,"lo2":-89.0444,"dy":0.0017,"dx":0.0017,"nx":28,"ny":28,"refTime":"2025-09-12T21:00:00:Z","depth":"4","parameterNumber":3,"parameterNumberName":"V-component_of_CURRENTS"},"data":[0,0,0,0,0,0,0,0,0,0,0,0,0,0,0,0,0,0,0,0,0,0,0,0,0,0,0,0,0,0,0,0,0,0,0,0,0,0,0,0,0,0,0,0,0,0,0,0,0,0,0,0,0,0,0,0,0,0,-0.0373,-0.0373,0,-0.0371,-0.0371,-0.0371,-0.038,-0.038,-0.0381,-0.0381,-0.0384,-0.0383,-0.0383,0,0,0,0,0,0,0,0,0,0,0,0,0,-0.039,-0.039,-0.0373,-0.0373,-0.0373,-0.0371,-0.0371,-0.0371,-0.038,-0.038,-0.0381,-0.0381,-0.0384,-0.0383,-0.0383,0,0,0,0,0,0,0,0,0,0,0,0,0,-0.0385,-0.039,-0.0373,-0.0377,-0.0378,-0.0371,-0.0371,-0.0371,-0.038,-0.038,-0.0381,-0.0381,-0.0384,-0.0383,-0.0383,-0.0373,0,0,-0.0382,-0.0382,0,0,0,0,0,0,0,0,-0.0385,-0.0384,-0.0377,-0.0377,-0.0377,-0.0377,-0.0378,-0.0372,-0.038,-0.0379,-0.0381,-0.0381,-0.0382,-0.0381,-0.038,-0.0373,-0.0373,-0.0382,-0.0382,-0.0382,-0.0382,0,0,0,0,0,0,0,-0.0385,-0.0384,-0.0372,-0.0377,-0.0377,-0.0382,-0.0381,-0.0377,-0.0378,-0.0379,-0.038,-0.038,-0.0382,-0.038,-0.038,-0.0373,-0.0382,-0.0382,-0.0382,-0.0382,-0.0348,-0.0348,0,0,0,0,0,0,-0.0385,-0.0384,-0.0372,-0.0372,-0.0383,-0.0381,-0.0381,-0.0376,-0.0378,-0.0378,-0.0379,-0.038,-0.038,-0.038,-0.038,-0.0365,-0.0382,-0.0382,-0.0382,-0.0349,-0.0348,-0.0347,0,0,0,0,0,0,-0.0386,-0.0384,-0.0372,-0.0379,-0.0378,-0.038,-0.0375,-0.0376,-0.0379,-0.0378,-0.0379,-0.0383,-0.0381,-0.038,-0.0373,-0.0365,-0.0382,-0.0381,-0.035,-0.0349,-0.0348,-0.0337,0,0,0,0,0,0,-0.0386,-0.0384,-0.0384,-0.0379,-0.0377,-0.0365,-0.0375,-0.0376,-0.0379,-0.038,-0.0381,-0.0381,-0.0381,-0.0374,-0.0373,-0.0365,-0.0381,-0.0351,-0.0349,-0.0348,-0.0338,-0.0336,-0.0334,0,0,0,0,0,-0.0387,-0.038,-0.0383,-0.0382,-0.0375,-0.0365,-0.0364,-0.0368,-0.0378,-0.0374,-0.0375,-0.0382,-0.0365,-0.0373,-0.0372,-0.0364,-0.0351,-0.035,-0.0348,-0.0339,-0.0336,-0.0334,0,0,0,0,0,0,-0.0382,-0.038,-0.0384,-0.0376,-0.0371,-0.0366,-0.0364,-0.0369,-0.0367,-0.0371,-0.0374,-0.0374,-0.0368,-0.0364,-0.0373,-0.0349,-0.0358,-0.0356,-0.0352,-0.0349,-0.0346,-0.0332,-0.0381,0,0,0,0,0,-0.0382,-0.0382,-0.0375,-0.0371,-0.0367,-0.0368,-0.0366,-0.0368,-0.0365,-0.0365,-0.0365,-0.0362,-0.0359,-0.0353,-0.035,-0.0335,-0.0313,-0.0328,-0.0325,-0.0323,-0.031,-0.0264,-0.0256,-0.0342,-0.0342,-0.0342,0,0,-0.0383,-0.038,-0.0382,-0.0371,-0.0369,-0.0359,-0.0368,-0.0363,-0.0356,-0.0365,-0.0356,-0.0359,-0.0355,-0.0341,-0.0336,-0.0336,-0.0289,-0.0321,-0.032,-0.0307,-0.0261,-0.0253,-0.0245,-0.0341,-0.0341,-0.0341,0,0,-0.0379,-0.0377,-0.0374,-0.0367,-0.036,-0.0356,-0.0355,-0.0349,-0.0347,-0.0338,-0.0344,-0.0334,-0.0332,-0.0318,-0.0313,-0.0292,-0.0283,-0.0299,-0.0269,-0.0225,-0.0217,-0.021,-0.0178,-0.0168,-0.0291,-0.0291,-0.0291,0,-0.038,-0.0373,-0.037,-0.0359,-0.0354,-0.0355,-0.0345,-0.0337,-0.0331,-0.0319,-0.0333,-0.0311,-0.0315,-0.0284,-0.0282,-0.0286,-0.0265,-0.0284,-0.0221,-0.0214,-0.0206,-0.0175,-0.0164,-0.029,-0.029,-0.029,-0.029,0,-0.037,-0.0366,-0.036,-0.0349,-0.0338,-0.0332,-0.0318,-0.0307,-0.0309,-0.0298,-0.0275,-0.0272,-0.0253,-0.0257,-0.0267,-0.022,-0.0223,-0.023,-0.0229,-0.0197,-0.0166,-0.0155,-0.0289,-0.0289,-0.029,-0.029,0,0,-0.0378,-0.0359,-0.036,-0.0357,-0.0335,-0.0329,-0.0303,-0.0278,-0.0263,-0.0248,-0.0219,-0.021,-0.0204,-0.0198,-0.0202,-0.0166,-0.0112,-0.0178,-0.0176,-0.0146,-0.0018,-0.0032,-0.0021,-0.0109,-0.0107,-0.0105,-0.0019,0,-0.0376,-0.0365,-0.0348,-0.0338,-0.0332,-0.0311,-0.0288,-0.0263,-0.0244,-0.0213,-0.0188,-0.0172,-0.0182,-0.0182,-0.0141,-0.013,-0.0081,-0.0135,-0.0052,-0.005,-0.0066,-0.0008,-0.0099,-0.0011,-0.0008,-0.0006,-0.0005,0,-0.0374,-0.0369,-0.0361,-0.0339,-0.0333,-0.0324,-0.0289,-0.0267,-0.0212,-0.0193,-0.0149,-0.0135,-0.0086,-0.0104,-0.0023,-0.0059,-0.0029,-0.0011,-0.0008,-0.0013,-0.0042,-0.0047,0.0015,0.0013,0.0012,0.0011,0.0009,0,-0.0397,-0.0378,-0.0378,-0.0372,-0.0343,-0.0334,-0.0317,-0.0267,-0.0246,-0.0183,-0.016,-0.0091,-0.0069,-0.001,0.0022,0.0004,0.0112,0.0091,0.012,0.0119,0.0097,0.0089,0.0177,0.0177,0.0176,0.0176,0.0176,0,-0.0402,-0.0404,-0.0398,-0.04,-0.0399,-0.0363,-0.0348,-0.0313,-0.0258,-0.0232,-0.0161,-0.0126,-0.0045,0.0018,0.0053,0.0122,0.0145,0.0147,0.0152,0.0098,0.0089,0.0105,0.0095,0.0179,0.0179,0.0178,0.0177,0,-0.0424,-0.0418,-0.0426,-0.0414,-0.0414,-0.0418,-0.0389,-0.0371,-0.0311,-0.0273,-0.0254,-0.0144,-0.0054,0.003,0.0126,0.0153,0.0218,0.0239,0.0181,0.0177,0.0189,0.0179,0.0291,0.0292,0.0292,0.0293,0.0293,0,-0.0429,-0.0438,-0.0457,-0.0472,-0.0473,-0.0473,-0.0468,-0.0414,-0.0393,-0.0295,-0.0279,-0.0163,-0.0093,0.0051,0.0138,0.0248,0.025,0.0286,0.0244,0.0214,0.0207,0.0196,0.0186,0.0294,0.0294,0.0294,0.0294,0,-0.0443,-0.0462,-0.0474,-0.0511,-0.0528,-0.0532,-0.0524,-0.0509,-0.044,-0.0392,-0.0298,-0.0197,-0.0077,0.0044,0.0145,0.0211,0.0262,0.029,0.029,0.025,0.0218,0.0208,0.0197,0.0295,0.0295,0.0295,0.0295,0,-0.0461,-0.0485,-0.0513,-0.0539,-0.0568,-0.0577,-0.0567,-0.053,-0.0494,-0.0387,-0.0363,-0.0215,-0.0122,0.0026,0.0105,0.019,0.0199,0.0197,0.0201,0.0201,0.0141,0.0085,0.0148,0,0,0,0,0,-0.047,-0.0498,-0.0531,-0.0562,-0.0592,-0.0601,-0.0591,-0.0569,-0.0513,-0.0463,-0.0408,-0.0301,-0.013,-0.0037,0.0044,0.0105,0.0208,0.0201,0.0206,0.0304,0.0302,0.0246,0,0,0,0,0,0,-0.0478,-0.0517,-0.0533,-0.0571,-0.0594,-0.0616,-0.0611,-0.0576,-0.0535,-0.047,-0.0374,-0.0307,-0.0135,-0.0184,0.0037,0.0069,0.0076,0.0292,0.0293,0.0305,0.0303,0.0302,0.0244,0,0,0,0,0]}]]